Content
SEND FEEDBACK

Daily
Averages
Monthly
Summary
United States of America

BOSTON, MASSACHUSETTS


Home > North America > United States > Massachusetts
Elevation: 4 feet     Latitude: 42 22N     Longitude: 071 02W

WEATHER
 
SELECT A DAY
Number of Records: 200,477;   Date Range: 1/1/95 - 4/18/14
 
SHARE

PRINT THIS DATA

[ ← Previous Day ]
WEATHER ALMANAC - APRIL 19, 2013
[ Next Day → ]
[ °C ]   °F
Weather ElementAverageHighLow
Temperature62.7 °F75 °F (12:54 pm)53.1 °F (1:54 am)
Dewpoint55.8 °F61 °F (11:54 pm)46.4 °F (1:10 am)
Humidity79.3 %97 % (5:54 am)53 % (12:54 pm)
Barometer29.92 in30.14 in (1:10 am)29.67 in (11:54 pm)
Wind Speed16.2 mph29.9 mph (3:54 pm)
Wind Gust38 mph (2:54 pm)
Weather ElementAverage
Visibility9.1 mi
Wind DirectionSSW (202.5 °)

Weather ElementTotal
Precipitation---
Heating Degree Days1 (Base 65)
Growing Degree Days14.1 (Base 50)
Averaged from 32 records on April 19, 2013
WEATHER CONDITIONS BREAKOUT
WIND DIRECTION BREAKOUT
WEATHER BY HOUR - APRIL 19, 2013
[ °C ]   °F
Local TimeTemperatureDewpointHumidityBarometerVisibilityWind DirectionWind SpeedGust SpeedPrecipitationEventsConditions
1:10 AM53.6 °F46.4 °F77 %30.14 in10.0 miSouth (190°)6.9 mphOvercast
1:54 AM53.1 °F46.9 °F80 %30.12 in10.0 miSouth (190°)6.9 mphOvercast
2:11 AM53.6 °F48.2 °F82 %30.11 in10.0 miSouth (190°)6.9 mphOvercast
2:54 AM54.0 °F50.0 °F86 %30.08 in10.0 miSouth (190°)10.4 mphOvercast
3:54 AM54.0 °F51.1 °F90 %30.06 in10.0 miSouth (190°)6.9 mphOvercast
4:54 AM55.9 °F53.1 °F90 %30.04 in10.0 miSSW (210°)9.2 mphOvercast
5:46 AM55.4 °F53.6 °F94 %30.03 in2.0 miSSW (210°)9.2 mphOvercast
5:54 AM55.9 °F55.0 °F97 %30.02 in1.0 miSSW (200°)11.5 mphOvercast
6:29 AM55.4 °F53.6 °F94 %30.01 in2.0 miSSW (200°)10.4 mphOvercast
6:46 AM57.2 °F55.4 °F94 %30.01 in5.0 miSSW (210°)9.2 mphOvercast
6:54 AM57.0 °F55.0 °F93 %30.02 in10.0 miSSW (210°)10.4 mphOvercast
7:54 AM60.1 °F55.9 °F86 %30.01 in10.0 miSSW (210°)12.7 mphOvercast
8:18 AM60.8 °F55.4 °F82 %30.01 in10.0 miSW (220°)11.5 mphOvercast
8:54 AM63.0 °F55.9 °F78 %30.00 in10.0 miSSW (200°)12.7 mphOvercast
9:24 AM62.6 °F55.4 °F77 %30.00 in10.0 miSSW (210°)16.1 mphMostly Cloudy
9:54 AM66.0 °F57.0 °F73 %29.98 in10.0 miSouth (190°)15.0 mphMostly Cloudy
10:54 AM70.0 °F57.0 °F63 %29.96 in10.0 miSSW (200°)17.3 mph23.0 mphMostly Cloudy
11:23 AM71.6 °F57.2 °F60 %29.94 in10.0 miSSW (210°)17.3 mph24.2 mphMostly Cloudy
11:54 AM71.1 °F57.0 °F61 %29.93 in10.0 miSW (220°)20.7 mph33.4 mphMostly Cloudy
12:54 PM75.0 °F57.0 °F53 %29.89 in10.0 miSSW (200°)26.5 mph35.7 mphMostly Cloudy
1:54 PM73.0 °F57.9 °F59 %29.86 in10.0 miSSW (200°)20.7 mph29.9 mphScattered Clouds
2:54 PM73.9 °F57.0 °F55 %29.84 in10.0 miSSW (210°)20.7 mph38.0 mphMostly Cloudy
3:54 PM71.1 °F57.9 °F63 %29.81 in10.0 miSSW (200°)29.9 mph36.8 mphMostly Cloudy
4:54 PM69.1 °F60.1 °F73 %29.79 in10.0 miSSW (200°)16.1 mph26.5 mphOvercast
5:54 PM66.0 °F60.1 °F81 %29.77 in10.0 miSSW (200°)23.0 mph36.8 mphOvercast
6:32 PM66.2 °F59.0 °F78 %29.75 in10.0 miSSW (200°)27.6 mph36.8 mphOvercast
6:54 PM64.0 °F59.0 °F84 %29.75 in10.0 miSSW (210°)18.4 mph32.2 mphOvercast
7:54 PM63.0 °F59.0 °F87 %29.75 in10.0 miSSW (200°)25.3 mph34.5 mphOvercast
8:54 PM63.0 °F59.0 °F87 %29.75 in10.0 miSSW (200°)21.9 mph27.6 mphOvercast
9:54 PM64.0 °F60.1 °F87 %29.72 in10.0 miSSW (210°)20.7 mph0.00 inLight Drizzle
10:54 PM64.0 °F60.1 °F87 %29.70 in10.0 miSSW (200°)20.7 mph27.6 mph0.00 inLight Drizzle
11:54 PM64.9 °F61.0 °F87 %29.67 in10.0 miSSW (200°)24.2 mph31.1 mph0.00 inLight Drizzle
Hourly data recorded from KBOS, located 0.67 miles away from Boston, Massachusetts







STORIES FROM OUR PARTNERS